{"data":{"norad_id":64162,"epoch":"2026-05-25T02:58:06.817728Z","epoch_age_seconds":74427,"freshness":"FRESH","line1":"1 64162U 25112S   26145.12369002  .00001598  00000+0  11475-3 0  9994","line2":"2 64162  97.4468 196.5630 0002446 104.9776 255.1722 15.05658741 54813","mean_motion":15.05658741,"eccentricity":0.0002446,"inclination_deg":97.4468,"raan_deg":196.563,"arg_perigee_deg":104.9776,"mean_anomaly_deg":255.1722,"bstar":0.00011475,"rev_number":5481,"period_min":95.639201685477,"perigee_km":547.78984583766,"apogee_km":551.17883819818,"semimajor_km":6927.6213420179,"source":"CELESTRAK","updated_at":"2026-05-25T13:38:20.306215Z"}}